TimeEST,TemperatureF,Dew PointF,Humidity,Sea Level PressureIn,VisibilityMPH,Wind Direction,Wind SpeedMPH,Gust SpeedMPH,PrecipitationIn,Events,Conditions,WindDirDegrees,DateUTC
12:15 AM,12.2,-0.4,57,30.09,10.0,West,18.4,27.6,N/A,,Overcast,280,2013-01-24 05:15:00
12:35 AM,12.2,3.2,67,30.09,10.0,WNW,20.7,27.6,N/A,,Overcast,300,2013-01-24 05:35:00
12:55 AM,12.2,1.4,62,30.09,10.0,West,17.3,32.2,N/A,,Overcast,280,2013-01-24 05:55:00
1:15 AM,12.2,-0.4,57,30.09,10.0,West,19.6,28.8,N/A,,Overcast,270,2013-01-24 06:15:00
1:35 AM,12.2,1.4,62,30.10,10.0,West,19.6,27.6,N/A,,Overcast,280,2013-01-24 06:35:00
1:55 AM,12.2,1.4,62,30.10,10.0,West,20.7,31.1,N/A,,Overcast,280,2013-01-24 06:55:00
2:15 AM,12.2,1.4,62,30.10,10.0,West,19.6,25.3,N/A,,Overcast,280,2013-01-24 07:15:00
2:35 AM,12.2,1.4,62,30.10,-9999.0,WNW,21.9,31.1,N/A,,Mostly Cloudy,290,2013-01-24 07:35:00
2:55 AM,12.2,1.4,62,30.09,-9999.0,WNW,23.0,29.9,N/A,,Mostly Cloudy,290,2013-01-24 07:55:00
3:15 AM,12.2,-0.4,57,30.09,10.0,WNW,23.0,29.9,N/A,,Mostly Cloudy,300,2013-01-24 08:15:00
3:35 AM,10.4,1.4,67,30.08,-9999.0,WNW,20.7,28.8,N/A,,Mostly Cloudy,290,2013-01-24 08:35:00
3:55 AM,10.4,1.4,67,30.08,10.0,WNW,19.6,25.3,N/A,,Mostly Cloudy,290,2013-01-24 08:55:00
4:15 AM,10.4,1.4,67,30.07,-9999.0,WNW,19.6,28.8,N/A,,Mostly Cloudy,300,2013-01-24 09:15:00
4:35 AM,10.4,3.2,73,30.07,-9999.0,WNW,19.6,29.9,N/A,,Mostly Cloudy,290,2013-01-24 09:35:00
5:15 AM,10.4,3.2,73,30.07,10.0,WNW,23.0,27.6,N/A,,Overcast,300,2013-01-24 10:15:00
5:35 AM,10.4,-0.4,62,30.08,10.0,WNW,18.4,29.9,N/A,,Mostly Cloudy,290,2013-01-24 10:35:00
5:55 AM,10.4,1.4,67,30.08,10.0,WNW,19.6,27.6,N/A,,Mostly Cloudy,300,2013-01-24 10:55:00
6:15 AM,10.4,1.4,67,30.08,10.0,NNW,17.3,28.8,N/A,,Mostly Cloudy,330,2013-01-24 11:15:00
6:35 AM,10.4,3.2,73,30.09,10.0,NW,19.6,28.8,N/A,,Overcast,320,2013-01-24 11:35:00
6:55 AM,10.4,1.4,67,30.09,10.0,WNW,18.4,26.5,N/A,,Overcast,300,2013-01-24 11:55:00
7:15 AM,10.4,1.4,67,30.09,10.0,WNW,15.0,28.8,N/A,,Overcast,300,2013-01-24 12:15:00
7:35 AM,10.4,3.2,73,30.09,10.0,North,-9999.0,-,N/A,,Overcast,0,2013-01-24 12:35:00
7:55 AM,10.4,6.8,85,30.10,10.0,NW,17.3,25.3,N/A,,Overcast,310,2013-01-24 12:55:00
8:15 AM,12.2,6.8,79,30.10,10.0,NW,18.4,25.3,N/A,,Overcast,310,2013-01-24 13:15:00
8:35 AM,12.2,3.2,67,30.10,10.0,NW,19.6,26.5,N/A,,Overcast,310,2013-01-24 13:35:00
8:55 AM,12.2,1.4,62,30.10,10.0,NW,20.7,26.5,N/A,,Overcast,310,2013-01-24 13:55:00
9:15 AM,12.2,1.4,62,30.10,10.0,WNW,20.7,27.6,N/A,,Mostly Cloudy,300,2013-01-24 14:15:00
9:35 AM,12.2,1.4,62,30.10,10.0,WNW,18.4,25.3,N/A,,Overcast,300,2013-01-24 14:35:00
9:55 AM,12.2,3.2,67,30.10,10.0,NW,21.9,26.5,N/A,,Overcast,320,2013-01-24 14:55:00
10:15 AM,12.2,3.2,67,30.09,10.0,North,-9999.0,-,N/A,,Mostly Cloudy,0,2013-01-24 15:15:00
10:35 AM,23.0,5.0,46,30.09,10.0,North,-9999.0,-,N/A,,Mostly Cloudy,0,2013-01-24 15:35:00
10:55 AM,-9999,-9999,N/A,-9999,10.0,North,-9999.0,-,N/A,,Mostly Cloudy,0,2013-01-24 15:55:00
11:15 AM,-9999,-9999,N/A,-9999,10.0,North,-9999.0,-,N/A,,Scattered Clouds,0,2013-01-24 16:15:00
11:35 AM,-9999,-9999,N/A,-9999,10.0,North,-9999.0,-,N/A,,Partly Cloudy,0,2013-01-24 16:35:00
11:55 AM,-9999,-9999,N/A,-9999,10.0,North,-9999.0,-,N/A,,Scattered Clouds,0,2013-01-24 16:55:00
12:15 PM,-9999,-9999,N/A,-9999,10.0,North,-9999.0,-,N/A,,Scattered Clouds,0,2013-01-24 17:15:00
12:35 PM,-9999,-9999,N/A,-9999,10.0,North,-9999.0,-,N/A,,Mostly Cloudy,0,2013-01-24 17:35:00
12:55 PM,-9999,-9999,N/A,-9999,10.0,North,-9999.0,-,N/A,,Scattered Clouds,0,2013-01-24 17:55:00
1:15 PM,-9999,-9999,N/A,-9999,10.0,North,-9999.0,-,N/A,,Scattered Clouds,0,2013-01-24 18:15:00
1:35 PM,-9999,-9999,N/A,-9999,10.0,North,-9999.0,-,N/A,,Partly Cloudy,0,2013-01-24 18:35:00
1:55 PM,-9999,-9999,N/A,-9999,10.0,North,-9999.0,-,N/A,,Clear,0,2013-01-24 18:55:00
2:15 PM,-9999,-9999,N/A,-9999,10.0,North,-9999.0,-,N/A,,Clear,0,2013-01-24 19:15:00
2:35 PM,-9999,-9999,N/A,-9999,10.0,North,-9999.0,-,N/A,,Clear,0,2013-01-24 19:35:00
2:55 PM,-9999,-9999,N/A,-9999,10.0,North,-9999.0,-,N/A,,Clear,0,2013-01-24 19:55:00
3:15 PM,-9999,-9999,N/A,-9999,10.0,North,-9999.0,-,N/A,,Clear,0,2013-01-24 20:15:00
3:35 PM,-9999,-9999,N/A,-9999,10.0,North,-9999.0,-,N/A,,Clear,0,2013-01-24 20:35:00
3:55 PM,-9999,-9999,N/A,-9999,10.0,North,-9999.0,-,N/A,,Clear,0,2013-01-24 20:55:00
4:15 PM,-9999,-9999,N/A,-9999,10.0,North,-9999.0,-,N/A,,Clear,0,2013-01-24 21:15:00
4:35 PM,-9999,-9999,N/A,-9999,10.0,North,-9999.0,-,N/A,,Clear,0,2013-01-24 21:35:00
4:55 PM,-9999,-9999,N/A,-9999,10.0,North,-9999.0,-,N/A,,Clear,0,2013-01-24 21:55:00
5:15 PM,-9999,-9999,N/A,-9999,10.0,North,-9999.0,-,N/A,,Clear,0,2013-01-24 22:15:00
5:35 PM,-9999,-9999,N/A,-9999,10.0,North,-9999.0,-,N/A,,Clear,0,2013-01-24 22:35:00
5:55 PM,-9999,-9999,N/A,-9999,10.0,North,-9999.0,-,N/A,,Clear,0,2013-01-24 22:55:00
6:15 PM,-9999,-9999,N/A,-9999,10.0,North,-9999.0,-,N/A,,Clear,0,2013-01-24 23:15:00
6:35 PM,-9999,-9999,N/A,-9999,10.0,North,-9999.0,-,N/A,,Clear,0,2013-01-24 23:35:00
6:55 PM,-9999,-9999,N/A,-9999,10.0,North,-9999.0,-,N/A,,Clear,0,2013-01-24 23:55:00
7:15 PM,-9999,-9999,N/A,-9999,10.0,North,-9999.0,-,N/A,,Clear,0,2013-01-25 00:15:00
7:35 PM,-9999,-9999,N/A,-9999,10.0,North,-9999.0,-,N/A,,Clear,0,2013-01-25 00:35:00
7:55 PM,-9999,-9999,N/A,-9999,10.0,North,-9999.0,-,N/A,,Clear,0,2013-01-25 00:55:00
8:15 PM,-9999,-9999,N/A,-9999,10.0,North,-9999.0,-,N/A,,Clear,0,2013-01-25 01:15:00
8:35 PM,-9999,-9999,N/A,-9999,10.0,North,-9999.0,-,N/A,,Clear,0,2013-01-25 01:35:00
8:55 PM,-9999,-9999,N/A,-9999,10.0,North,-9999.0,-,N/A,,Clear,0,2013-01-25 01:55:00
9:15 PM,-9999,-9999,N/A,-9999,10.0,North,-9999.0,-,N/A,,Clear,0,2013-01-25 02:15:00
9:35 PM,-9999,-9999,N/A,-9999,10.0,North,-9999.0,-,N/A,,Clear,0,2013-01-25 02:35:00
9:55 PM,-9999,-9999,N/A,-9999,10.0,North,-9999.0,-,N/A,,Partly Cloudy,0,2013-01-25 02:55:00
10:15 PM,-9999,-9999,N/A,-9999,10.0,North,-9999.0,-,N/A,,Clear,0,2013-01-25 03:15:00
10:35 PM,-9999,-9999,N/A,-9999,10.0,North,-9999.0,-,N/A,,Clear,0,2013-01-25 03:35:00
10:55 PM,-9999,-9999,N/A,-9999,10.0,North,-9999.0,-,N/A,,Partly Cloudy,0,2013-01-25 03:55:00
11:35 PM,-9999,-9999,N/A,-9999,10.0,North,-9999.0,-,N/A,,Partly Cloudy,0,2013-01-25 04:35:00
11:55 PM,-9999,-9999,N/A,-9999,10.0,North,-9999.0,-,N/A,,Partly Cloudy,0,2013-01-25 04:55:00